FALCON 9 DEB, 52893

Orbit data source: Space-Track

FALCON 9 DEB, 52893 is space debris in LEO originally from a launch on Sun, 19 Jun 2022 UTC launched from the Air Force Eastern Test Range (AFETR). Debris objects in space refer to the collection of defunct objects orbiting the Earth. Examples of debris include non-operational satellites, rocket bodies, and fragments generated from explosions, collisions, or faulty payload assembly.

Loading next visibility...
Identifier
52893, 2022-064F
Orbit
LEO
Last TLE update
4 hours ago
Origin
Manufacturer
SpaceX/Seattle
Mission
Spacecraft
Bus & Motor
Unknown
Mass
~50 kg wet, ~50 kg dry
Launch date (UTC)
2022-06-19 (3 years ago)
Launch vehicle
Unknown
Launch site
Air Force Eastern Test Range (AFETR)
Object type
Payload
Rocket body
Debris
Shape & HBR
Cyl, 7 m
Radar Cross Section
0.110 m², Medium (>0.1 m² and < 1m²)

Expand to show TLE details & history

TLE from 4 hours ago
0 FALCON 9 DEB
1 52893U 22064F   25129.18881474  .00006736  00000-0  23603-3 0  9990
2 52893  52.9923  63.5395 0007082 337.8792  22.1900 15.30647358117731
Epoch: 2025-05-09T04:31Z
Definitive object data (Epoch: 2025-05-09T04:31:53.593Z)
Latitude
-0.00004°
Longitude
128.31763°
Altitude
470.269 km
Speed
7.635 km/s
True Right ascension
04h 14m 09s
True Declination
0° 00' 00"
Sunlit
Object was in daylight at TLE epoch
Visualization TLE readout
Latitude
-49.69627°
Longitude
65.36208°
Altitude
487.91 km
Speed
7.623 km/s
Apparent Right ascension
02h 41m 51s
Apparent Declination
-51° 27' 20"
Sunlit
Object is in daylight
Visualization observer readout
Local Sidereal Time
17:04:19
Azimuth
127.139° SE
Elevation
-62.921°
Doppler factor
1
Orbital elements
Apogee altitude
479.016 km
Perigee altitude
469.31 km
Semi-major axis
6,852.3 km
Eccentricity
0.0007082
Inclination
52.9923°
RAAN
63.5395°
Arg. of periapsis
337.8792°
True anomaly
22.22068°
Mean anomaly
22.19°
Eccentric anomaly
22.20534°
Mean motion
3.82638 °/min
BSTAR
0.00023603
Orbital period
94.08 mins
Loading maneuver chart data...
Loading SW <> Apogee altitude chart data...
Loading historical data...
Loading historical data...
Loading historical data...
Loading historical data...
Loading historical data...
Loading historical data...
Loading historical data...
Other satellites on launch #64 in the year 2022 (2022-06-19 UTC)

FALCON 9 DEB Visibility forecast

Observer location: undefined°, undefined°

Span
Click to sort rows by Start time (UTC) header in descending order
Start Az.
Max El. time (UTC)
Max El. Az.
Max El.
End time (UTC)
End Az.
6 mins2025-05-09 21:56:05.105Z209.099° SW2025-05-09 21:59:05.105Z136.774° SSE37.436°2025-05-09 22:02:05.105Z62.217° ENE
4 mins2025-05-09 23:36:05.105Z304.881° NW2025-05-09 23:37:05.105Z330.679° NNW22.759°2025-05-09 23:40:05.105Z28.763° NE
5 mins2025-05-10 04:32:05.105Z332.326° NNW2025-05-10 04:34:05.105Z41.365° NE35.754°2025-05-10 04:37:05.105Z107.367° ESE
4 mins2025-05-10 06:10:05.105Z263.799° W2025-05-10 06:12:05.105Z219.683° SW19.29°2025-05-10 06:14:05.105Z184.399° SSW
|